Regional Weather Roundup
Issued by NWS

Home | Current Version | Previous Version | Graphics & Text | Print | Product List | Glossary On
Versions: 1 2 3 4 5 6 7 8 9 10 11 12 13 14 15 16 17 18 19 20 21 22 23 24 25 26 27 28 29 30 31 32 33 34 35 36 37 38 39 40 41 42 43 44 45 46 47 48 49 50
000
ASUS45 KABQ 150210
RWRNM
WEATHER ROUNDUP FOR NEW MEXICO
NATIONAL WEATHER SERVICE ALBUQUERQUE NM
800 PM MDT SUN SEP 14 2014

NOTE: "FAIR" MEANS FEW OR NO CLOUDS BELOW 12,000 FEET AGL WITH NO
       SIGNIFICANT WEATHER OR OBSTRUCTIONS TO VISION.

      THIS PRODUCT IS RELEASED AS TWO VERSIONS.  ONE VERSION NEAR
      THE TOP OF THE HOUR CONTAINING PRELIMINARY DATA FROM ALBUQUERQUE
      AND OTHER STATIONS.  A FINAL VERSION WITH ADDITIONAL DATA IS
      ISSUED ABOUT 10 MINUTES AFTER THE HOUR.

NMZ501-503-504-510>518-150300-
NORTHWEST PLATEAU/NORTHCENTRAL MOUNTAINS

CITY           SKY/WX    TMP DP  RH WIND       PRES   REMARKS
FARMINGTON     CLEAR     76  36  23 NW5       30.08R
LOS ALAMOS     PTCLDY    66  49  55 S9        30.28R
SANTA FE       PTCLDY    67  50  54 SE16      30.23R
ANGEL FIRE     MOCLDY    56  45  65 S14       30.35R

$$
NMZ402-403-502-505>509-150300-
WESTCENTRAL MOUNTAINS/SOUTHWEST MOUNTAINS

CITY           SKY/WX    TMP DP  RH WIND       PRES   REMARKS
GALLUP         CLOUDY    68  49  50 S15       30.19R
GRANTS         CLOUDY    68  48  49 S5        30.23R
SILVER CITY    PTCLDY    70  54  56 SE10      30.19R

$$
NMZ407-409-411-412-150300-
SOUTHERN DESERTS

CITY           SKY/WX    TMP DP  RH WIND       PRES   REMARKS
LORDSBURG      FAIR      75  54  46 E13G20    30.07R
DEMING         CLEAR     75  55  49 E9        30.10R
LAS CRUCES     CLOUDY    74  56  54 E8        30.14R
HOLLOMAN AFB   PTCLDY    73  57  58 S10       30.11R
ALAMOGORDO     MOCLDY    72  55  56 S9        30.13R
T OR C         CLOUDY    74  54  49 SE5       30.14R

$$
NMZ519>523-150300-
CENTRAL VALLEYS/CENTRAL HIGHLANDS

CITY           SKY/WX    TMP DP  RH WIND       PRES   REMARKS
ALBUQUERQUE    PTCLDY    74  51  44 S14       30.17R
DOUBLE EAGLE   PTCLDY    70  52  52 S17       30.20R
MORIARTY ARPT  FAIR      61  55  80 SE9       30.25S
CLINES CORNERS CLOUDY    59  55  87 S12       30.28S
BELEN          FAIR      72  52  50 S14       30.16R
SOCORRO        FAIR      72  54  53 SE9       30.14R

$$
NMZ524>526-539-540-150300-
SOUTHCENTRAL MOUNTAINS

CITY           SKY/WX    TMP DP  RH WIND       PRES   REMARKS
RUIDOSO        NOT AVBL

$$
NMZ527>531-150300-
NORTHEAST HIGHLANDS/NORTHEAST PLAINS

CITY           SKY/WX    TMP DP  RH WIND       PRES   REMARKS
LAS VEGAS      MOCLDY    58  55  90 S13       30.27S
RATON          LGT RAIN  63  56  78 S17       30.20R
CLAYTON        MOCLDY    66  55  67 S16       30.14R

$$
NMZ532>537-150300-
EASTCENTRAL PLAINS

CITY           SKY/WX    TMP DP  RH WIND       PRES   REMARKS
TUCUMCARI      MOCLDY    68  59  73 SW10      30.12S
CANNON AFB     MOCLDY    65  60  86 S14       30.18F
CLOVIS AIRPORT   N/A     64  57  77 S14       30.21S

$$
NMZ028-029-538-150300-
SOUTHEAST PLAINS

CITY           SKY/WX    TMP DP  RH WIND       PRES   REMARKS
ROSWELL        CLOUDY    64  60  87 S9        30.18R
CARLSBAD       CLOUDY    64  63  96 S8        30.17S
HOBBS          MOCLDY    63  63 100 SE10      30.21R


$$


USA.gov is the U.S. government's official web portal to all federal, state and local government web resources and services.